SCP
0 0 0 0 0 0 0 0 0 0 0 0 0 0 0 0 0 0 -0 -0 0 0 -0 0 0 0 0 -0 -0 0 0 0 0 0 0 0 0 0 0 0 0 0 0 0 0 0 0 0 0 0 0 0 0 0
0 0 0 0 0 0 0 0 0 0 0 0 0 0 0 0 0 0 0 0 0 0 -0 0 -0 0 0 0 -0 0 0 0 0 0 0 0 0 0 0 0 0 0 0 0 0 0 0 0 0 0 0 0 0 0
0 0 0 0 0 0 0 0 0 0 0 0 0 0 0 0 0 0 0 0 0 0 -0 -0 0 -0 0 0 -0 -0 -0 0 0 0 0 0 0 0 0 0 0 0 0 0 0 0 0 0 0 0 0 0 0 0
0 0 0 0 0 0 0 0 0 0 0 0 0 0 0 0 0 0 0 0 0 0 0 -0 -0 0 0 0 0 0 0 0 0 0 0 0 0 0 0 0 0 0 0 0 0 0 0 0 0 0 0 0 0 0
0 0 0 0 0 0 0 0 0 0 0 0 0 0 0 0 0 0 0 -0 0 0 0 0 -0 0 0 0 0 0 0 0 0 0 0 0 0 0 0 0 0 0 0 0 0 0 0 0 0 0 0 0 0 0
0 0 0 0 0 0 0 0 0 0 0 0 0 0 0 0 0 0 0 -0 -0 0 0 0 -0 -0 -0 0 0 -0 -0 0 0 0 0 0 0 0 0 0 0 -0 0 0 0 0 0 0 0 0 0 0 0 0
0 0 0 0 0 0 0 0 0 0 0 0 0 0 0 0 0 0 0 0 0 0 0 0 -0 -0 -0 -0 -0 -0 -0 -0 0 0 0 0 0 0 0 0 0 0 -0 0 0 0 0 0 0 0 0 0 0 0
0 0 0 0 0 0 0 0 0 0 0 0 0 0 0 0 0 0 0 0 0 0 -0 0 0 0 -0 -0 -0 -0 0 0 0 0 0 0 0 0 0 0 0 0 0 0 0 0 0 0 0 0 0 0 0 0
0 0 0 0 0 0 0 0 0 0 0 0 0 0 0 0 0 0 0 0 0 0 0 0 0 0 0 0 0 0 0 0 0 0 0 0 0 0 0 0 0 0 0 0 0 0 0 0 0 0 0 0 0 0
0 0 0 0 0 0 0 0 0 0 -0 0 0 0 0 0 0 0 0 0 0 0 0 0 0 0 0 0 0 0 0 0 0 0 0 0 0 -0 -0 0 0 0 0 0 0 0 0 0 0 0 0 0 0 0
0 0 0 0 0 0 0 0 0 0 0 0 0 0 0 0 0 0 0 0 0 0 0 0 0 0 0 0 0 0 0 0 0 0 0 0 0 0 0 0 0 0 0 0 0 0 0 0 0 0 0 0 0 0
0 0 0 0 0 0 0 0 0 0 0 0 0 0 0 0 0 0 0 0 0 0 0 0 0 0 0 0 0 0 0 0 0 0 0 0 0 0 0 0 0 0 0 0 0 0 0 0 0 0 0 0 0 0
0 0 0 0 0 0 0 0 0 0 0 0 0 0 0 0 -0 0 0 0 0 0 0 0 0 0 0 0 0 0 0 0 0 0 0 0 0 0 0 0 0 0 0 0 0 0 0 0 0 0 0 0 0 0
0 0 0 0 0 0 0 0 0 0 0 0 0 0 0 0 0 0 0 0 0 0 0 0 0 0 -0 0 0 0 0 0 0 0 0 0 0 0 0 0 0 -0 0 0 0 0 0 0 0 0 0 0 0 0
0 0 0 0 0 0 0 0 0 0 0 0 0 0 0 0 0 0 0 0 0 0 0 0 0 0 0 0 0 0 0 0 0 0 -0 0 0 0 0 0 0 0 0 0 0 0 0 0 0 0 0 0 0 0
0 0 0 0 0 0 0 0 0 0 0 0 0 0 0 -0 0 0 0 0 0 0 0 0 0 0 0 0 0 0 0 0 0 -0 0 0 0 0 0 0 0 0 0 0 0 0 0 0 0 0 0 0 0 0
0 0 0 0 0 0 0 0 0 0 0 0 0 0 0 0 0 0 0 -0 0 0 0 0 0 0 0 0 0 0 0 0 0 0 0 0 0 0 0 0 0 0 0 0 0 0 0 0 0 0 0 0 0 0
0 0 0 0 0 0 0 0 0 0 0 0 0 -0 -0 0 0 0 0 0 0 0 0 0 0 0 0 0 0 0 0 0 0 0 0 0 0 0 0 0 0 0 0 0 0 0 0 0 0 0 0 0 0 0
0 0 0 0 0 0 0 0 0 0 0 0 0 0 0 0 -0 0 0 0 0 0 0 0 0 0 0 0 0 0 0 0 0 0 0 0 0 0 0 0 0 0 0 0 0 0 0 0 0 0 0 0 0 0
0 0 0 0 0 0 0 0 0 0 0 0 0 0 0 0 -0 0 0 0 0 0 0 0 0 -0 -0 -0 0 0 0 0 0 0 0 0 0 0 0 0 0 0 0 0 0 0 0 0 0 0 0 0 0 0
0 0 0 0 0 0 0 0 0 0 0 0 0 0 0 -0 -0 0 0 0 0 0 0 0 -0 0 0 0 0 0 0 0 0 0 0 0 0 0 0 0 0 0 0 0 0 0 0 0 0 0 0 0 0 0
0 0 0 0 0 0 0 0 0 0 0 0 0 0 0 0 0 0 0 0 0 0 0 0 0 0 0 0 0 0 0 0 0 0 0 0 0 0 0 0 0 0 0 0 0 0 0 0 0 0 0 0 0 0
0 0 0 0 0 0 0 0 0 0 0 0 0 0 0 0 0 0 0 0 0 0 0 0 0 0 0 0 0 0 0 0 0 0 0 0 0 0 0 0 0 0 0 0 0 0 0 0 0 0 0 0 0 0
0 0 0 0 0 0 0 0 0 0 0 0 0 0 0 0 0 0 0 0 0 0 0 0 0 0 0 0 0 0 0 0 0 0 0 0 0 0 0 0 0 0 0 0 0 0 0 0 0 0 0 0 0 0
0 0 0 0 0 0 0 0 0 0 0 0 0 0 0 0 0 0 0 0 0 0 0 0 0 0 0 0 0 0 0 0 0 0 0 0 0 0 0 0 0 0 0 0 0 0 0 0 0 0 0 0 0 0
0 0 0 0 0 0 0 0 0 0 0 0 0 0 0 0 0 0 0 0 0 0 0 0 0 0 0 0 0 0 0 0 0 0 0 0 0 0 0 0 0 0 0 0 0 0 0 0 0 0 0 0 0 0
0 0 0 0 0 0 0 0 0 0 0 0 0 0 0 0 0 0 0 0 0 0 0 0 0 0 0 0 0 0 0 0 0 0 0 0 0 0 0 0 0 0 0 0 0 0 0 0 0 0 0 0 0 0
0 0 0 0 0 0 0 0 0 0 0 0 0 0 0 0 0 0 0 0 0 0 0 0 0 0 0 0 0 0 0 0 0 0 0 0 0 0 0 0 0 0 0 0 0 0 0 0 0 0 0 0 0 0
0 0 0 0 0 0 0 0 0 -0 0 0 0 0 0 0 0 0 0 0 0 0 0 0 0 0 0 0 0 0 0 0 0 0 0 0 0 0 0 0 -0 0 0 0 0 0 0 0 0 0 0 0 0 0
0 0 0 0 0 0 -0 -0 -0 -0 0 0 0 0 0 0 0 0 0 0 0 0 0 0 0 0 0 0 0 0 0 0 -0 0 0 0 0 0 0 0 0 0 0 0 0 0 0 0 0 0 0 0 0 0
0 0 0 0 0 0 0 0 0 0 0 0 0 0 0 0 0 0 0 0 0 0 0 0 0 0 0 0 0 -0 -0 -0 -0 0 0 0 0 0 0 0 0 0 0 0 0 0 0 0 0 0 0 0 0 0
0 0 0 0 0 0 0 0 0 0 0 0 0 0 0 0 0 0 0 0 0 0 0 0 0 0 0 0 0 0 0 0 0 0 0 0 0 0 0 0 0 0 0 0 0 0 0 0 0 0 0 0 0 0
0 0 0 0 0 0 0 0 0 0 0 0 0 0 0 0 0 0 0 0 0 0 0 0 0 -0 -0 0 0 0 0 0 0 0 0 0 0 0 0 0 0 0 0 0 0 0 0 0 0 0 0 0 0 0
Wind_Speed_500mb
23 19 17 16 16 21 27 32 34 33 24 23 24 17 4 5 6 4 6 6 4 2 8 17 11 11 4 4 1 12 8 4 5 6 5 4 4 2 5 3 4 5 6 3 4 1 6 13 6 5 8 4 4 14
21 17 17 15 17 22 29 33 35 31 21 20 21 16 3 2 2 9 7 3 5 5 2 3 10 17 12 19 17 8 6 5 1 8 1 5 4 4 4 2 6 4 7 6 10 8 8 9 8 10 6 8 16 13
18 17 16 14 18 25 30 34 34 28 20 18 19 15 4 4 2 6 10 5 12 10 10 5 9 5 7 6 5 7 7 7 3 3 9 4 7 6 4 2 6 11 3 5 6 4 4 3 5 4 6 11 14 12
19 17 14 15 20 27 31 34 33 25 20 17 17 13 6 6 6 6 6 3 7 6 5 7 10 6 9 10 5 8 14 12 8 5 5 5 6 2 2 5 7 4 6 2 4 8 5 10 3 7 14 11 14 16
18 15 12 17 23 28 33 35 31 22 19 17 16 11 8 9 7 6 10 4 2 6 4 3 14 8 12 10 7 8 14 9 5 2 8 3 6 6 5 7 7 11 4 6 7 5 4 8 8 16 17 17 7 2
15 11 13 20 24 29 34 34 28 18 20 19 16 9 11 12 9 9 7 9 2 6 4 1 10 12 10 4 5 5 9 11 10 7 6 7 9 6 6 3 5 7 7 5 6 4 11 13 13 14 14 10 7 4
11 10 16 21 26 32 34 31 24 18 19 20 10 8 15 15 14 8 5 10 0 7 4 3 5 7 19 13 10 7 7 3 8 7 9 7 12 7 5 4 5 20 7 7 11 19 17 25 15 17 17 14 9 11
8 12 17 22 28 32 32 29 18 17 21 11 7 10 18 15 15 7 7 2 2 3 4 5 6 1 13 7 5 6 4 4 12 8 6 6 8 10 6 8 14 17 11 12 11 16 15 14 16 26 26 22 17 21
10 13 19 25 29 31 28 23 15 18 11 3 8 16 15 13 9 8 3 5 9 7 3 4 7 6 9 7 5 6 7 7 6 9 6 6 5 7 6 17 18 4 10 13 7 1 3 12 16 21 29 31 31 33
10 17 23 28 29 25 26 16 13 8 7 10 13 10 9 11 6 4 6 6 8 6 1 5 4 1 0 3 1 3 3 6 5 3 3 6 2 6 9 27 12 10 14 15 18 12 13 21 21 19 23 24 34 36
18 22 26 26 21 22 21 10 10 4 8 6 5 4 11 11 7 6 4 3 3 5 4 3 2 2 5 3 6 2 4 2 6 4 6 5 3 5 19 30 28 13 11 16 20 27 31 28 17 24 25 34 33 36
21 24 25 22 15 22 14 5 8 12 7 5 6 8 6 4 4 5 3 4 7 3 3 3 2 5 3 4 2 1 5 3 5 10 6 2 7 2 6 10 11 13 16 20 19 19 16 6 16 16 24 31 29 28
24 26 25 12 20 19 9 2 7 10 6 6 5 4 5 4 13 4 3 4 3 3 4 8 4 6 3 2 5 5 7 3 14 5 4 8 3 5 8 11 15 17 17 19 20 24 15 18 24 26 22 21 19 27
27 27 13 14 21 12 7 6 6 6 4 4 5 8 4 4 2 5 7 7 6 4 4 5 6 1 3 4 2 6 2 7 4 4 6 6 18 9 8 11 14 16 23 26 27 24 15 19 23 22 21 17 29 32
26 14 10 19 13 3 12 12 8 8 5 5 2 0 1 5 11 18 17 12 6 3 5 3 2 2 4 6 6 6 6 4 3 6 6 16 21 14 11 15 21 25 26 26 22 23 24 18 24 27 21 18 29 32
22 13 21 20 8 10 17 14 14 9 5 5 6 8 19 27 11 14 11 7 7 4 2 3 4 5 6 5 7 3 4 3 5 7 10 20 24 17 13 20 27 31 31 26 28 31 29 25 22 23 17 15 19 19
16 21 21 16 14 16 15 19 10 6 4 3 5 22 27 21 12 7 9 10 6 2 3 4 6 3 4 6 5 1 6 6 1 6 13 24 25 22 19 22 24 29 31 32 41 41 36 37 28 17 15 12 19 19
22 15 19 12 17 20 21 15 5 4 4 8 11 15 12 12 8 4 5 13 3 5 4 3 5 8 5 6 3 5 7 8 8 2 6 16 26 30 32 32 32 30 36 35 37 35 32 19 16 12 12 17 23 31
18 15 13 11 14 12 7 5 3 4 5 10 14 16 12 9 6 3 9 11 9 8 4 6 9 4 3 7 20 18 11 6 5 4 5 6 8 18 29 30 33 33 22 22 16 8 8 7 6 10 18 30 34 33
10 13 13 14 12 7 5 5 5 5 5 4 10 12 9 1 0 2 9 10 13 7 10 5 6 16 26 27 20 13 9 6 6 12 11 14 20 24 22 19 12 10 11 10 6 2 5 8 10 11 13 16 23 30
8 11 15 19 19 10 6 5 6 6 5 6 4 4 4 3 4 6 4 8 6 4 5 9 24 23 19 18 17 13 13 6 15 17 21 21 13 11 6 6 6 6 8 6 8 12 18 24 26 32 40 45 45 41
13 14 16 13 7 6 6 8 4 3 3 3 3 1 3 4 5 4 2 4 9 10 9 18 23 19 19 14 11 8 6 10 13 17 11 5 6 7 10 9 13 11 9 17 27 33 35 33 36 39 38 34 33 29
13 13 8 6 5 4 3 7 5 4 5 4 2 3 3 2 2 7 10 13 12 15 16 14 16 19 19 17 10 10 8 13 16 15 13 17 19 16 12 9 9 15 23 31 35 34 34 33 31 29 30 31 30 32
11 6 5 5 6 3 4 4 3 4 3 4 3 4 2 3 5 11 6 10 17 22 24 25 21 19 9 6 10 15 15 13 16 20 15 13 13 12 13 18 25 29 36 39 39 39 37 36 35 35 33 34 39 46
5 6 6 8 6 7 7 4 5 7 4 4 4 4 5 4 6 5 4 9 13 18 16 10 14 20 24 21 13 11 9 11 15 16 9 8 13 14 18 21 25 31 35 39 41 36 36 40 41 39 43 47 52 56
9 7 4 7 5 5 3 4 3 2 1 4 6 5 7 7 8 5 2 9 4 2 5 14 20 23 16 8 2 3 8 12 14 15 16 18 23 24 26 34 43 46 42 43 44 48 51 56 58 59 62 67 68 70
8 9 9 7 6 4 8 8 4 7 8 6 4 8 6 8 7 8 7 7 11 9 11 11 11 9 5 8 7 10 11 15 20 21 14 15 23 30 35 46 52 54 53 52 56 57 60 62 62 67 71 69 65 61
6 11 8 15 10 10 4 5 6 5 4 6 5 9 5 6 4 17 22 12 4 6 5 12 17 16 15 11 5 10 17 24 28 32 33 32 35 42 54 65 63 63 63 61 61 64 56 57 61 65 66 67 67 58
7 10 11 15 7 8 9 5 5 5 4 3 7 5 9 12 14 13 19 18 20 19 21 20 19 13 12 12 17 30 41 48 57 66 68 66 75 75 71 76 81 77 73 71 68 57 59 64 68 65 62 61 63 54
9 3 5 9 6 6 10 12 12 8 4 4 15 36 38 39 34 29 24 18 15 24 26 25 27 32 42 48 52 57 62 62 59 59 62 64 71 67 64 71 75 67 63 67 72 72 66 64 69 72 69 63 58 68
6 5 7 9 7 11 14 10 6 5 7 6 6 19 35 33 43 47 40 35 31 31 35 45 49 54 55 53 54 54 55 63 74 61 49 50 59 73 80 76 72 75 79 85 86 86 81 74 71 71 68 66 66 52
16 11 3 5 7 13 20 13 10 8 11 8 9 24 29 15 14 24 54 38 38 43 45 45 51 54 50 49 51 63 59 58 65 73 72 73 77 71 74 83 90 88 75 70 72 73 72 71 69 67 65 62 55 45
11 18 16 9 9 10 19 15 8 6 10 2 18 31 28 15 15 14 46 53 41 35 33 33 44 57 62 53 58 60 62 61 68 74 72 63 61 74 82 72 67 77 79 80 77 74 67 61 57 54 55 60 61 59
Wind_Direction_500mb
223 231 249 269 296 314 324 330 333 336 336 343 342 333 322 342 10 80 115 101 81 54 222 235 268 286 71 141 225 344 357 321 24 77 120 198 135 181 67 311 186 179 128 134 83 46 319 351 344 17 196 168 174 138
223 236 254 275 300 314 322 328 332 333 330 339 341 331 280 294 28 125 103 113 189 189 224 272 316 341 340 293 288 280 253 282 345 85 111 126 105 83 161 198 15 60 171 184 166 218 266 346 97 121 167 173 170 174
226 241 260 286 302 314 321 326 330 329 328 333 337 326 253 211 155 128 117 57 147 158 185 242 314 327 351 38 315 301 323 349 338 346 147 127 93 122 106 293 69 354 55 81 61 331 289 217 149 142 180 180 184 214
230 246 266 291 306 313 321 325 328 323 323 327 330 321 243 207 186 174 142 64 170 183 167 224 228 300 325 293 305 338 324 308 301 237 119 116 103 186 128 161 104 267 25 73 356 317 303 255 313 170 154 161 142 130
232 249 277 299 305 316 322 324 323 317 318 324 323 310 221 207 210 173 179 198 143 224 229 212 205 235 268 297 278 297 299 307 224 124 57 70 98 88 35 77 5 346 184 121 216 296 223 280 220 185 163 146 147 286
238 261 295 299 309 321 322 322 321 309 318 320 312 287 206 196 184 154 155 187 25 3 195 153 232 216 205 220 264 299 323 4 44 72 84 79 57 99 84 112 297 342 124 94 155 132 144 136 153 178 185 200 210 302
248 286 292 302 321 323 321 320 315 310 318 318 289 236 194 180 181 190 161 153 88 334 201 358 305 203 217 238 270 268 299 26 91 90 56 46 32 66 92 105 29 357 277 149 183 158 160 176 212 232 251 263 241 263
266 286 298 320 324 323 320 319 310 315 319 305 243 202 175 169 181 173 118 190 297 294 218 121 275 100 214 253 247 222 204 94 31 73 66 55 37 37 61 326 328 322 210 205 221 247 281 275 261 243 243 237 251 271
280 300 319 323 326 323 318 323 312 320 307 229 174 167 161 161 156 160 212 223 223 263 200 118 141 206 192 243 215 189 180 79 78 57 8 55 340 45 254 341 338 331 216 164 163 240 275 250 258 264 256 250 264 278
303 323 324 325 325 320 326 330 326 330 127 132 144 158 161 163 172 209 220 207 194 184 160 86 139 234 78 25 293 156 111 127 84 305 70 64 250 238 344 6 350 248 234 242 269 267 273 275 251 279 277 282 269 278
330 324 316 320 321 327 329 331 353 106 120 126 135 123 137 153 164 189 186 147 137 50 75 100 63 275 226 125 223 201 156 96 85 240 99 6 286 223 23 39 39 20 339 338 316 294 285 281 269 290 302 289 288 290
312 309 317 321 323 331 324 324 21 55 49 77 104 105 98 120 107 88 357 10 52 162 45 88 17 302 275 260 134 62 99 87 115 155 103 225 252 228 13 37 28 12 8 354 354 358 8 311 305 324 306 296 292 277
314 320 322 308 331 327 299 228 43 52 100 94 86 70 42 16 48 119 114 351 46 95 58 10 318 334 259 289 90 99 87 91 119 50 193 223 202 145 357 349 341 324 328 345 346 348 324 337 339 348 325 328 319 300
324 326 317 317 326 316 211 174 95 85 90 71 61 2 130 298 166 176 157 167 121 97 29 331 276 280 307 33 122 102 168 104 74 110 235 241 183 178 275 299 284 282 311 324 325 318 335 333 330 336 334 338 329 323
332 328 316 335 333 309 175 161 135 97 83 72 67 18 130 115 94 107 112 108 90 3 284 295 272 281 0 78 30 78 58 66 172 208 230 205 197 223 255 257 258 279 303 314 330 317 314 305 313 320 331 328 336 335
344 356 355 5 14 134 153 145 114 94 68 46 34 76 110 101 96 105 84 40 344 298 94 82 80 64 38 90 58 86 93 193 247 227 234 200 208 220 245 260 274 286 299 302 304 300 291 294 306 317 312 319 326 331
2 355 353 26 109 118 137 123 92 61 47 67 90 96 107 120 141 109 51 15 358 41 84 69 50 51 91 59 57 90 173 218 259 258 257 232 230 238 262 278 303 294 290 300 309 298 285 286 288 291 290 287 301 314
3 3 12 70 129 116 111 107 65 44 74 122 117 118 117 132 158 146 51 28 27 61 63 89 112 54 100 120 248 228 146 122 94 64 277 267 257 254 262 286 297 300 303 295 310 298 287 268 267 292 313 325 330 320
7 15 39 103 132 107 91 87 45 85 89 100 115 133 118 102 121 43 359 358 2 19 46 77 71 105 181 159 151 160 155 162 142 350 315 306 267 282 273 279 287 281 288 294 295 247 219 225 251 286 290 302 307 307
4 25 78 88 119 82 81 66 48 71 86 51 114 146 159 134 79 330 335 6 49 66 56 63 176 152 147 164 167 152 168 184 272 284 296 284 292 301 299 295 296 201 192 154 163 192 319 315 326 346 331 316 300 300
56 85 97 96 75 65 72 58 68 57 46 85 92 164 166 201 250 315 36 38 75 70 120 135 141 143 156 165 177 203 188 240 293 278 297 295 266 256 217 155 164 200 243 264 300 324 329 330 324 316 314 315 318 320
84 110 94 83 64 73 72 46 64 22 52 7 22 63 67 74 99 36 3 61 46 40 103 149 157 167 180 194 225 232 290 311 311 298 304 307 266 297 304 288 277 286 322 351 349 340 333 326 320 318 317 321 325 325
102 102 76 55 67 66 71 26 54 44 67 12 346 65 77 127 37 3 70 36 48 90 137 159 155 147 131 100 57 0 330 319 320 329 340 335 319 298 283 284 319 329 329 334 334 329 324 319 319 313 314 315 312 307
105 65 48 48 41 17 39 40 37 14 29 41 49 62 33 65 78 66 59 29 80 102 118 118 119 107 76 5 347 336 320 322 341 345 336 304 285 263 277 300 311 315 322 327 332 332 325 319 314 312 307 305 309 315
55 33 39 26 25 26 2 13 39 55 41 17 48 22 358 13 74 66 126 147 109 100 99 77 27 4 354 336 310 305 315 331 342 342 333 326 317 299 295 296 305 322 329 329 333 331 325 324 320 315 311 314 317 318
67 38 48 19 19 75 351 53 56 90 84 59 26 22 9 60 63 32 28 145 149 87 354 345 341 336 314 291 282 339 353 352 341 331 331 326 325 328 331 331 332 332 333 333 330 322 317 317 315 311 308 310 311 313
45 8 28 15 347 33 47 45 43 61 44 49 353 16 36 64 52 12 30 352 311 299 310 320 321 301 152 122 61 31 3 350 351 348 324 330 338 336 339 343 336 329 326 317 316 314 311 310 311 314 315 312 310 311
29 17 20 10 42 49 72 46 53 56 34 32 54 32 69 49 45 11 10 30 124 214 218 116 104 99 91 84 42 344 341 347 346 337 336 325 334 337 332 331 329 323 323 321 319 319 316 313 315 315 311 310 309 310
13 13 25 21 41 41 44 63 93 77 81 83 118 75 82 72 41 78 96 129 146 142 117 106 92 93 79 47 14 8 7 359 358 354 349 341 337 334 326 319 321 325 327 323 322 321 315 318 322 319 315 314 313 308
357 37 53 33 56 44 38 69 105 107 129 140 128 107 90 83 80 96 104 98 76 65 58 49 36 22 16 10 4 360 0 1 1 353 339 331 328 331 334 333 332 330 325 321 321 321 319 315 318 318 317 315 309 308
20 51 51 42 71 66 48 55 41 86 41 342 182 157 142 117 76 56 54 49 44 36 27 22 15 12 10 8 6 359 351 344 341 346 346 338 336 331 328 327 326 325 324 323 323 323 323 322 320 321 322 319 317 311
28 17 18 23 57 60 35 29 23 12 353 333 117 124 134 103 79 40 24 25 24 20 17 16 13 7 360 354 345 342 343 345 344 345 342 333 331 330 327 326 324 327 332 332 331 330 330 330 328 326 323 322 320 314
68 47 47 40 17 10 5 356 311 269 273 84 83 90 80 76 76 44 14 21 20 10 10 10 358 350 346 353 354 348 345 339 336 335 334 333 329 332 337 338 333 338 340 337 335 336 334 332 331 328 325 323 320 317
Wind_Speed_850mb
23 19 17 16 16 21 27 32 34 33 24 23 24 17 4 5 6 4 6 6 4 2 8 17 11 11 4 4 1 12 8 4 5 6 5 4 4 2 5 3 4 5 6 3 4 1 6 13 6 5 8 4 4 14
21 17 17 15 17 22 29 33 35 31 21 20 21 16 3 2 2 9 7 3 5 5 2 3 10 17 12 19 17 8 6 5 1 8 1 5 4 4 4 2 6 4 7 6 10 8 8 9 8 10 6 8 16 13
18 17 16 14 18 25 30 34 34 28 20 18 19 15 4 4 2 6 10 5 12 10 10 5 9 5 7 6 5 7 7 7 3 3 9 4 7 6 4 2 6 11 3 5 6 4 4 3 5 4 6 11 14 12
19 17 14 15 20 27 31 34 33 25 20 17 17 13 6 6 6 6 6 3 7 6 5 7 10 6 9 10 5 8 14 12 8 5 5 5 6 2 2 5 7 4 6 2 4 8 5 10 3 7 14 11 14 16
18 15 12 17 23 28 33 35 31 22 19 17 16 11 8 9 7 6 10 4 2 6 4 3 14 8 12 10 7 8 14 9 5 2 8 3 6 6 5 7 7 11 4 6 7 5 4 8 8 16 17 17 7 2
15 11 13 20 24 29 34 34 28 18 20 19 16 9 11 12 9 9 7 9 2 6 4 1 10 12 10 4 5 5 9 11 10 7 6 7 9 6 6 3 5 7 7 5 6 4 11 13 13 14 14 10 7 4
11 10 16 21 26 32 34 31 24 18 19 20 10 8 15 15 14 8 5 10 0 7 4 3 5 7 19 13 10 7 7 3 8 7 9 7 12 7 5 4 5 20 7 7 11 19 17 25 15 17 17 14 9 11
8 12 17 22 28 32 32 29 18 17 21 11 7 10 18 15 15 7 7 2 2 3 4 5 6 1 13 7 5 6 4 4 12 8 6 6 8 10 6 8 14 17 11 12 11 16 15 14 16 26 26 22 17 21
10 13 19 25 29 31 28 23 15 18 11 3 8 16 15 13 9 8 3 5 9 7 3 4 7 6 9 7 5 6 7 7 6 9 6 6 5 7 6 17 18 4 10 13 7 1 3 12 16 21 29 31 31 33
10 17 23 28 29 25 26 16 13 8 7 10 13 10 9 11 6 4 6 6 8 6 1 5 4 1 0 3 1 3 3 6 5 3 3 6 2 6 9 27 12 10 14 15 18 12 13 21 21 19 23 24 34 36
18 22 26 26 21 22 21 10 10 4 8 6 5 4 11 11 7 6 4 3 3 5 4 3 2 2 5 3 6 2 4 2 6 4 6 5 3 5 19 30 28 13 11 16 20 27 31 28 17 24 25 34 33 36
21 24 25 22 15 22 14 5 8 12 7 5 6 8 6 4 4 5 3 4 7 3 3 3 2 5 3 4 2 1 5 3 5 10 6 2 7 2 6 10 11 13 16 20 19 19 16 6 16 16 24 31 29 28
24 26 25 12 20 19 9 2 7 10 6 6 5 4 5 4 13 4 3 4 3 3 4 8 4 6 3 2 5 5 7 3 14 5 4 8 3 5 8 11 15 17 17 19 20 24 15 18 24 26 22 21 19 27
27 27 13 14 21 12 7 6 6 6 4 4 5 8 4 4 2 5 7 7 6 4 4 5 6 1 3 4 2 6 2 7 4 4 6 6 18 9 8 11 14 16 23 26 27 24 15 19 23 22 21 17 29 32
26 14 10 19 13 3 12 12 8 8 5 5 2 0 1 5 11 18 17 12 6 3 5 3 2 2 4 6 6 6 6 4 3 6 6 16 21 14 11 15 21 25 26 26 22 23 24 18 24 27 21 18 29 32
22 13 21 20 8 10 17 14 14 9 5 5 6 8 19 27 11 14 11 7 7 4 2 3 4 5 6 5 7 3 4 3 5 7 10 20 24 17 13 20 27 31 31 26 28 31 29 25 22 23 17 15 19 19
16 21 21 16 14 16 15 19 10 6 4 3 5 22 27 21 12 7 9 10 6 2 3 4 6 3 4 6 5 1 6 6 1 6 13 24 25 22 19 22 24 29 31 32 41 41 36 37 28 17 15 12 19 19
22 15 19 12 17 20 21 15 5 4 4 8 11 15 12 12 8 4 5 13 3 5 4 3 5 8 5 6 3 5 7 8 8 2 6 16 26 30 32 32 32 30 36 35 37 35 32 19 16 12 12 17 23 31
18 15 13 11 14 12 7 5 3 4 5 10 14 16 12 9 6 3 9 11 9 8 4 6 9 4 3 7 20 18 11 6 5 4 5 6 8 18 29 30 33 33 22 22 16 8 8 7 6 10 18 30 34 33
10 13 13 14 12 7 5 5 5 5 5 4 10 12 9 1 0 2 9 10 13 7 10 5 6 16 26 27 20 13 9 6 6 12 11 14 20 24 22 19 12 10 11 10 6 2 5 8 10 11 13 16 23 30
8 11 15 19 19 10 6 5 6 6 5 6 4 4 4 3 4 6 4 8 6 4 5 9 24 23 19 18 17 13 13 6 15 17 21 21 13 11 6 6 6 6 8 6 8 12 18 24 26 32 40 45 45 41
13 14 16 13 7 6 6 8 4 3 3 3 3 1 3 4 5 4 2 4 9 10 9 18 23 19 19 14 11 8 6 10 13 17 11 5 6 7 10 9 13 11 9 17 27 33 35 33 36 39 38 34 33 29
13 13 8 6 5 4 3 7 5 4 5 4 2 3 3 2 2 7 10 13 12 15 16 14 16 19 19 17 10 10 8 13 16 15 13 17 19 16 12 9 9 15 23 31 35 34 34 33 31 29 30 31 30 32
11 6 5 5 6 3 4 4 3 4 3 4 3 4 2 3 5 11 6 10 17 22 24 25 21 19 9 6 10 15 15 13 16 20 15 13 13 12 13 18 25 29 36 39 39 39 37 36 35 35 33 34 39 46
5 6 6 8 6 7 7 4 5 7 4 4 4 4 5 4 6 5 4 9 13 18 16 10 14 20 24 21 13 11 9 11 15 16 9 8 13 14 18 21 25 31 35 39 41 36 36 40 41 39 43 47 52 56
9 7 4 7 5 5 3 4 3 2 1 4 6 5 7 7 8 5 2 9 4 2 5 14 20 23 16 8 2 3 8 12 14 15 16 18 23 24 26 34 43 46 42 43 44 48 51 56 58 59 62 67 68 70
8 9 9 7 6 4 8 8 4 7 8 6 4 8 6 8 7 8 7 7 11 9 11 11 11 9 5 8 7 10 11 15 20 21 14 15 23 30 35 46 52 54 53 52 56 57 60 62 62 67 71 69 65 61
6 11 8 15 10 10 4 5 6 5 4 6 5 9 5 6 4 17 22 12 4 6 5 12 17 16 15 11 5 10 17 24 28 32 33 32 35 42 54 65 63 63 63 61 61 64 56 57 61 65 66 67 67 58
7 10 11 15 7 8 9 5 5 5 4 3 7 5 9 12 14 13 19 18 20 19 21 20 19 13 12 12 17 30 41 48 57 66 68 66 75 75 71 76 81 77 73 71 68 57 59 64 68 65 62 61 63 54
9 3 5 9 6 6 10 12 12 8 4 4 15 36 38 39 34 29 24 18 15 24 26 25 27 32 42 48 52 57 62 62 59 59 62 64 71 67 64 71 75 67 63 67 72 72 66 64 69 72 69 63 58 68
6 5 7 9 7 11 14 10 6 5 7 6 6 19 35 33 43 47 40 35 31 31 35 45 49 54 55 53 54 54 55 63 74 61 49 50 59 73 80 76 72 75 79 85 86 86 81 74 71 71 68 66 66 52
16 11 3 5 7 13 20 13 10 8 11 8 9 24 29 15 14 24 54 38 38 43 45 45 51 54 50 49 51 63 59 58 65 73 72 73 77 71 74 83 90 88 75 70 72 73 72 71 69 67 65 62 55 45
11 18 16 9 9 10 19 15 8 6 10 2 18 31 28 15 15 14 46 53 41 35 33 33 44 57 62 53 58 60 62 61 68 74 72 63 61 74 82 72 67 77 79 80 77 74 67 61 57 54 55 60 61 59
Wind_Direction_850mb
223 231 249 269 296 314 324 330 333 336 336 343 342 333 322 342 10 80 115 101 81 54 222 235 268 286 71 141 225 344 357 321 24 77 120 198 135 181 67 311 186 179 128 134 83 46 319 351 344 17 196 168 174 138
223 236 254 275 300 314 322 328 332 333 330 339 341 331 280 294 28 125 103 113 189 189 224 272 316 341 340 293 288 280 253 282 345 85 111 126 105 83 161 198 15 60 171 184 166 218 266 346 97 121 167 173 170 174
226 241 260 286 302 314 321 326 330 329 328 333 337 326 253 211 155 128 117 57 147 158 185 242 314 327 351 38 315 301 323 349 338 346 147 127 93 122 106 293 69 354 55 81 61 331 289 217 149 142 180 180 184 214
230 246 266 291 306 313 321 325 328 323 323 327 330 321 243 207 186 174 142 64 170 183 167 224 228 300 325 293 305 338 324 308 301 237 119 116 103 186 128 161 104 267 25 73 356 317 303 255 313 170 154 161 142 130
232 249 277 299 305 316 322 324 323 317 318 324 323 310 221 207 210 173 179 198 143 224 229 212 205 235 268 297 278 297 299 307 224 124 57 70 98 88 35 77 5 346 184 121 216 296 223 280 220 185 163 146 147 286
238 261 295 299 309 321 322 322 321 309 318 320 312 287 206 196 184 154 155 187 25 3 195 153 232 216 205 220 264 299 323 4 44 72 84 79 57 99 84 112 297 342 124 94 155 132 144 136 153 178 185 200 210 302
248 286 292 302 321 323 321 320 315 310 318 318 289 236 194 180 181 190 161 153 88 334 201 358 305 203 217 238 270 268 299 26 91 90 56 46 32 66 92 105 29 357 277 149 183 158 160 176 212 232 251 263 241 263
266 286 298 320 324 323 320 319 310 315 319 305 243 202 175 169 181 173 118 190 297 294 218 121 275 100 214 253 247 222 204 94 31 73 66 55 37 37 61 326 328 322 210 205 221 247 281 275 261 243 243 237 251 271
280 300 319 323 326 323 318 323 312 320 307 229 174 167 161 161 156 160 212 223 223 263 200 118 141 206 192 243 215 189 180 79 78 57 8 55 340 45 254 341 338 331 216 164 163 240 275 250 258 264 256 250 264 278
303 323 324 325 325 320 326 330 326 330 127 132 144 158 161 163 172 209 220 207 194 184 160 86 139 234 78 25 293 156 111 127 84 305 70 64 250 238 344 6 350 248 234 242 269 267 273 275 251 279 277 282 269 278
330 324 316 320 321 327 329 331 353 106 120 126 135 123 137 153 164 189 186 147 137 50 75 100 63 275 226 125 223 201 156 96 85 240 99 6 286 223 23 39 39 20 339 338 316 294 285 281 269 290 302 289 288 290
312 309 317 321 323 331 324 324 21 55 49 77 104 105 98 120 107 88 357 10 52 162 45 88 17 302 275 260 134 62 99 87 115 155 103 225 252 228 13 37 28 12 8 354 354 358 8 311 305 324 306 296 292 277
314 320 322 308 331 327 299 228 43 52 100 94 86 70 42 16 48 119 114 351 46 95 58 10 318 334 259 289 90 99 87 91 119 50 193 223 202 145 357 349 341 324 328 345 346 348 324 337 339 348 325 328 319 300
324 326 317 317 326 316 211 174 95 85 90 71 61 2 130 298 166 176 157 167 121 97 29 331 276 280 307 33 122 102 168 104 74 110 235 241 183 178 275 299 284 282 311 324 325 318 335 333 330 336 334 338 329 323
332 328 316 335 333 309 175 161 135 97 83 72 67 18 130 115 94 107 112 108 90 3 284 295 272 281 0 78 30 78 58 66 172 208 230 205 197 223 255 257 258 279 303 314 330 317 314 305 313 320 331 328 336 335
344 356 355 5 14 134 153 145 114 94 68 46 34 76 110 101 96 105 84 40 344 298 94 82 80 64 38 90 58 86 93 193 247 227 234 200 208 220 245 260 274 286 299 302 304 300 291 294 306 317 312 319 326 331
2 355 353 26 109 118 137 123 92 61 47 67 90 96 107 120 141 109 51 15 358 41 84 69 50 51 91 59 57 90 173 218 259 258 257 232 230 238 262 278 303 294 290 300 309 298 285 286 288 291 290 287 301 314
3 3 12 70 129 116 111 107 65 44 74 122 117 118 117 132 158 146 51 28 27 61 63 89 112 54 100 120 248 228 146 122 94 64 277 267 257 254 262 286 297 300 303 295 310 298 287 268 267 292 313 325 330 320
7 15 39 103 132 107 91 87 45 85 89 100 115 133 118 102 121 43 359 358 2 19 46 77 71 105 181 159 151 160 155 162 142 350 315 306 267 282 273 279 287 281 288 294 295 247 219 225 251 286 290 302 307 307
4 25 78 88 119 82 81 66 48 71 86 51 114 146 159 134 79 330 335 6 49 66 56 63 176 152 147 164 167 152 168 184 272 284 296 284 292 301 299 295 296 201 192 154 163 192 319 315 326 346 331 316 300 300
56 85 97 96 75 65 72 58 68 57 46 85 92 164 166 201 250 315 36 38 75 70 120 135 141 143 156 165 177 203 188 240 293 278 297 295 266 256 217 155 164 200 243 264 300 324 329 330 324 316 314 315 318 320
84 110 94 83 64 73 72 46 64 22 52 7 22 63 67 74 99 36 3 61 46 40 103 149 157 167 180 194 225 232 290 311 311 298 304 307 266 297 304 288 277 286 322 351 349 340 333 326 320 318 317 321 325 325
102 102 76 55 67 66 71 26 54 44 67 12 346 65 77 127 37 3 70 36 48 90 137 159 155 147 131 100 57 0 330 319 320 329 340 335 319 298 283 284 319 329 329 334 334 329 324 319 319 313 314 315 312 307
105 65 48 48 41 17 39 40 37 14 29 41 49 62 33 65 78 66 59 29 80 102 118 118 119 107 76 5 347 336 320 322 341 345 336 304 285 263 277 300 311 315 322 327 332 332 325 319 314 312 307 305 309 315
55 33 39 26 25 26 2 13 39 55 41 17 48 22 358 13 74 66 126 147 109 100 99 77 27 4 354 336 310 305 315 331 342 342 333 326 317 299 295 296 305 322 329 329 333 331 325 324 320 315 311 314 317 318
67 38 48 19 19 75 351 53 56 90 84 59 26 22 9 60 63 32 28 145 149 87 354 345 341 336 314 291 282 339 353 352 341 331 331 326 325 328 331 331 332 332 333 333 330 322 317 317 315 311 308 310 311 313
45 8 28 15 347 33 47 45 43 61 44 49 353 16 36 64 52 12 30 352 311 299 310 320 321 301 152 122 61 31 3 350 351 348 324 330 338 336 339 343 336 329 326 317 316 314 311 310 311 314 315 312 310 311
29 17 20 10 42 49 72 46 53 56 34 32 54 32 69 49 45 11 10 30 124 214 218 116 104 99 91 84 42 344 341 347 346 337 336 325 334 337 332 331 329 323 323 321 319 319 316 313 315 315 311 310 309 310
13 13 25 21 41 41 44 63 93 77 81 83 118 75 82 72 41 78 96 129 146 142 117 106 92 93 79 47 14 8 7 359 358 354 349 341 337 334 326 319 321 325 327 323 322 321 315 318 322 319 315 314 313 308
357 37 53 33 56 44 38 69 105 107 129 140 128 107 90 83 80 96 104 98 76 65 58 49 36 22 16 10 4 360 0 1 1 353 339 331 328 331 334 333 332 330 325 321 321 321 319 315 318 318 317 315 309 308
20 51 51 42 71 66 48 55 41 86 41 342 182 157 142 117 76 56 54 49 44 36 27 22 15 12 10 8 6 359 351 344 341 346 346 338 336 331 328 327 326 325 324 323 323 323 323 322 320 321 322 319 317 311
28 17 18 23 57 60 35 29 23 12 353 333 117 124 134 103 79 40 24 25 24 20 17 16 13 7 360 354 345 342 343 345 344 345 342 333 331 330 327 326 324 327 332 332 331 330 330 330 328 326 323 322 320 314
68 47 47 40 17 10 5 356 311 269 273 84 83 90 80 76 76 44 14 21 20 10 10 10 358 350 346 353 354 348 345 339 336 335 334 333 329 332 337 338 333 338 340 337 335 336 334 332 331 328 325 323 320 317